This is the latest recevied weather packets stored in our database for station/object SR7U-1. If no packets are shown the sender has not sent any weather packets the latest 10 day(s).
| Time | Temp. | Humidity | Pressure | Rain* | Wind** | Luminosity | Snow |
|---|---|---|---|---|---|---|---|
| 1777502540 | 0° C | 72% | 1028.8 hPa | - | - | - | - |
| 1777501645 | -0.56° C | 72% | 1028.9 hPa | - | - | - | - |
| 1777500905 | 0.56° C | 69% | 1028.8 hPa | - | - | - | - |
| 1777500173 | 0.56° C | 69% | 1028.8 hPa | - | - | - | - |
| 1777499280 | -0.56° C | 70% | 1028.8 hPa | - | - | - | - |
| 1777498440 | 0.56° C | 69% | 1028.5 hPa | - | - | - | - |
| 1777497680 | 0° C | 69% | 1028.5 hPa | - | - | - | - |
| 1777496877 | 1.67° C | 67% | 1028.5 hPa | - | - | - | - |
| 1777496059 | 1.67° C | 66% | 1028.3 hPa | - | - | - | - |
| 1777495335 | 2.22° C | 66% | 1028.2 hPa | - | - | - | - |
| 1777494539 | 2.22° C | 63% | 1028.2 hPa | - | - | - | - |
| 1777493665 | 2.78° C | 61% | 1028.2 hPa | - | - | - | - |
| 1777492882 | 2.78° C | 62% | 1028.1 hPa | - | - | - | - |
| 1777492115 | 2.78° C | 61% | 1028.2 hPa | - | - | - | - |
| 1777491252 | 2.22° C | 61% | 1028.2 hPa | - | - | - | - |
| 1777490482 | 2.22° C | 62% | 1028.2 hPa | - | - | - | - |
| 1777489744 | 2.22° C | 62% | 1028 hPa | - | - | - | - |
| 1777488870 | 2.22° C | 60% | 1027.9 hPa | - | - | - | - |
| 1777488100 | 2.78° C | 58% | 1027.9 hPa | - | - | - | - |
| 1777487270 | 3.33° C | 55% | 1027.8 hPa | - | - | - | - |
| 1777486375 | 3.89° C | 55% | 1027.7 hPa | - | - | - | - |
| 1777485580 | 3.89° C | 53% | 1027.6 hPa | - | - | - | - |
| 1777484730 | 4.44° C | 51% | 1027.5 hPa | - | - | - | - |
| 1777483974 | 4.44° C | 51% | 1027.5 hPa | - | - | - | - |
| 1777483175 | 5° C | 51% | 1027.3 hPa | - | - | - | - |
* Rain since midnight (hover to see other rain measurements)
** Current wind speed in m/s (hover to see current wind gust speed)